TimeMDT,TemperatureF,Dew PointF,Humidity,Sea Level PressureIn,VisibilityMPH,Wind Direction,Wind SpeedMPH,Gust SpeedMPH,PrecipitationIn,Events,Conditions,WindDirDegrees,DateUTC
12:00 AM,18,13,75,30.01,,North,11.5,,,,,0,2012-10-07 06:00:00
12:00 AM,17.8,13.5,83,30.01,-9999.0,North,11.5,19.6,N/A,,Unknown,360,2012-10-07 06:00:00
1:00 AM,17.2,13.5,85,30.03,-9999.0,North,15.0,-,N/A,,Unknown,350,2012-10-07 07:00:00
2:00 AM,16.2,13.1,88,30.04,-9999.0,North,16.1,-,N/A,,Unknown,350,2012-10-07 08:00:00
3:00 AM,14.4,11.5,88,30.06,-9999.0,NNW,9.2,-,N/A,,Unknown,340,2012-10-07 09:00:00
4:00 AM,15.3,11.7,86,30.07,-9999.0,North,13.8,-,N/A,,Unknown,360,2012-10-07 10:00:00
5:00 AM,15.4,12.6,88,30.08,-9999.0,NNW,10.4,-,N/A,,Unknown,330,2012-10-07 11:00:00
6:00 AM,15,11,79,30.08,,North,15.0,,,,,350,2012-10-07 12:00:00
6:00 AM,14.7,11.5,87,30.08,-9999.0,North,15.0,-,N/A,,Unknown,350,2012-10-07 12:00:00
7:00 AM,15.1,12.2,88,30.09,-9999.0,North,12.7,19.6,N/A,,Unknown,360,2012-10-07 13:00:00
8:00 AM,17.8,15.3,90,30.09,-9999.0,North,8.1,-,N/A,,Unknown,350,2012-10-07 14:00:00
9:00 AM,18.0,14.2,85,30.09,-9999.0,North,10.4,-,N/A,,Unknown,350,2012-10-07 15:00:00
11:00 AM,17.8,15.6,91,30.10,-9999.0,NNW,10.4,-,N/A,,Unknown,330,2012-10-07 17:00:00
12:00 PM,18,15,84,30.11,,NNW,10.4,,,,,340,2012-10-07 18:00:00
12:00 PM,18.5,15.3,87,30.11,-9999.0,NNW,10.4,-,N/A,,Unknown,340,2012-10-07 18:00:00
1:00 PM,19.4,15.6,85,30.11,-9999.0,NNW,8.1,-,N/A,,Unknown,340,2012-10-07 19:00:00
2:00 PM,19.2,15.3,85,30.12,-9999.0,NNW,10.4,-,N/A,,Unknown,340,2012-10-07 20:00:00
3:00 PM,18.5,14.9,86,30.12,-9999.0,North,9.2,-,N/A,,Unknown,350,2012-10-07 21:00:00
4:00 PM,17.4,13.8,86,30.13,-9999.0,North,9.2,-,N/A,,Unknown,350,2012-10-07 22:00:00
5:00 PM,16.9,13.3,86,30.13,-9999.0,North,10.4,-,N/A,,Unknown,350,2012-10-07 23:00:00
6:00 PM,16,13,82,30.13,,NNW,6.9,,,,,340,2012-10-08 00:00:00
6:00 PM,16.0,12.9,88,30.13,-9999.0,NNW,6.9,-,N/A,,Unknown,340,2012-10-08 00:00:00
7:00 PM,15.1,12.4,89,30.12,-9999.0,NNW,8.1,-,N/A,,Unknown,340,2012-10-08 01:00:00
8:00 PM,12.6,10.2,90,30.10,-9999.0,North,8.1,-,N/A,,Unknown,350,2012-10-08 02:00:00
9:00 PM,12.6,10.4,91,30.09,-9999.0,North,3.5,-,N/A,,Unknown,360,2012-10-08 03:00:00
10:00 PM,12.9,10.9,92,30.07,-9999.0,North,6.9,-,N/A,,Unknown,10,2012-10-08 04:00:00
11:00 PM,14.0,10.4,86,30.05,-9999.0,North,8.1,-,N/A,,Unknown,350,2012-10-08 05:00:00